Regional Weather Roundup
Issued by NWS

Home | Current Version | Previous Version | Graphics & Text | Print | Product List | Glossary On
Versions: 1 2 3 4 5 6 7 8 9 10 11 12 13 14 15 16 17 18 19 20 21 22 23 24 25 26 27 28 29 30 31 32 33 34 35 36 37 38 39 40 41 42 43 44 45 46 47 48
000
ASUS45 KCYS 210610
RWRWY

WYOMING REGIONAL WEATHER ROUNDUP
NATIONAL WEATHER SERVICE CHEYENNE WY
1200 AM MDT TUE OCT 21 2014

NOTE:  "FAIR" INDICATES FEW OR NO CLOUDS BELOW 12,000 FEET
WITH NO SIGNIFICANT WEATHER AND/OR OBSTRUCTIONS TO VISIBILITY.

WYZ001-210700-
YELLOWSTONE NATIONAL PARK

CITY           SKY/WX    TMP DP  RH WIND       PRES   REMARKS
LK YELLOWSTONE   N/A     32  28  85 NW3       30.09F
6HR MIN TEMP:  32; 6HR MAX TEMP:  55;

W YELLOWSTONE  NOT AVBL

$$
WYZ002>013-054>058-071-098>099-210700-
NORTHERN WYOMING

CITY           SKY/WX    TMP DP  RH WIND       PRES   REMARKS
JACKSON        CLEAR     36  30  80 N8        30.02F WCI  29
CODY           CLEAR     52  32  46 SW6       29.89F
GREYBULL       CLEAR     44  26  49 NW3       29.85S
6HR MIN TEMP:  44; 6HR MAX TEMP:  73;

WORLAND        CLEAR     44  29  55 CALM      29.86F
6HR MIN TEMP:  44; 6HR MAX TEMP:  71;

SHERIDAN       CLEAR     48  30  49 CALM      29.84F
6HR MIN TEMP:  40; 6HR MAX TEMP:  60;

BUFFALO        CLEAR     53  23  31 W5        29.89F
6HR MIN TEMP:  51; 6HR MAX TEMP:  69;

GILLETTE       CLEAR     57  32  38 S15       29.87F
6HR MIN TEMP:  52; 6HR MAX TEMP:  69;

HULETT         FAIR      61  36  39 SW6       29.88
NEWCASTLE      FAIR      61  32  33 E12       29.93

$$
WYZ014>020-022>026-101>103-210700-
CENTRAL WYOMING

CITY           SKY/WX    TMP DP  RH WIND       PRES   REMARKS
BIG PINEY      PTCLDY    35  26  69 E8        30.08F WCI  29
6HR MIN TEMP:  33; 6HR MAX TEMP:  61;

PINEDALE       PTCLDY    34  28  80 CALM      30.09S
DUBOIS         FAIR      41  27  56 NW13      30.05F
LANDER         CLEAR     58  30  34 W16       29.95F
6HR MIN TEMP:  56; 6HR MAX TEMP:  67;

RIVERTON       CLEAR     51  29  42 W8        29.97F
6HR MIN TEMP:  51; 6HR MAX TEMP:  65;

CASPER         CLEAR     49  34  56 SW10      29.98F
6HR MIN TEMP:  45; 6HR MAX TEMP:  67;

DOUGLAS        CLEAR     43  32  65 CALM      29.99S
6HR MIN TEMP:  43; 6HR MAX TEMP:  70;


$$
WYZ021-027>030-104>119-210700-
SOUTHERN WYOMING

CITY           SKY/WX    TMP DP  RH WIND       PRES   REMARKS
EVANSTON       PTCLDY    48  33  56 S5        30.07F
6HR MIN TEMP:  48; 6HR MAX TEMP:  64;

KEMMERER       MOCLDY    45  32  61 N7        30.09F
FORT BRIDGER   CLOUDY    50  34  55 S12       30.10F
ROCK SPRINGS   CLEAR     52  33  48 SW10      30.07F
6HR MIN TEMP:  50; 6HR MAX TEMP:  64;

DIXON          FAIR      43  34  72 CALM      30.14F
RAWLINS        CLEAR     47  33  58 W9        30.10F
6HR MIN TEMP:  45; 6HR MAX TEMP:  63;

SARATOGA       FAIR      43  32  65 S10       30.13F
LARAMIE        CLEAR     42  32  67 S9        30.14F
6HR MIN TEMP:  39; 6HR MAX TEMP:  58;

CHEYENNE       CLEAR     43  34  70 W6        30.07F
6HR MIN TEMP:  43; 6HR MAX TEMP:  65;

TORRINGTON     CLEAR     47  35  63 E7        29.98S
6HR MIN TEMP:  47; 6HR MAX TEMP:  70;

PINE BLUFFS    FAIR      52  37  58 S10       30.05S

$$



USA.gov is the U.S. government's official web portal to all federal, state and local government web resources and services.